Probability
0 0 0 0 0 0 0 0 0 0 0 0 0 0 0 0 0 0 0 0 0 1 2 2 1 0 0 0 0 0 0 0 0 0 0 0 1 1 1 0 0 0 0 0
0 0 0 0 0 0 0 0 0 0 0 0 0 0 0 0 0 0 0 0 0 0 1 2 1 0 0 0 0 0 0 0 0 0 0 0 0 1 0 0 0 0 0 0
0 0 0 0 0 0 0 0 0 0 0 0 0 0 0 0 0 0 0 0 0 0 1 2 1 0 0 0 0 0 0 0 0 0 0 0 1 1 1 0 0 0 0 0
0 0 0 0 0 0 0 0 0 0 0 0 0 0 0 0 0 0 0 0 0 0 1 1 1 0 0 0 0 0 0 0 0 0 0 0 1 2 1 0 0 0 0 0
0 0 0 0 0 0 0 0 0 0 0 0 0 0 0 0 0 0 0 0 0 0 0 0 0 0 0 0 0 0 0 0 0 0 0 0 1 2 1 0 0 0 0 0
0 0 0 0 0 0 0 0 0 0 0 0 0 0 0 0 0 0 0 0 0 0 0 0 0 0 0 0 0 0 0 0 0 0 0 0 1 2 1 0 0 0 0 0
0 0 0 0 0 0 0 0 0 0 0 0 0 0 0 0 0 0 0 0 0 0 0 0 0 0 0 0 0 0 0 0 0 0 0 0 1 2 1 0 0 0 0 0
0 0 0 0 0 0 0 0 0 0 0 0 0 0 0 0 0 0 0 0 0 0 0 0 0 0 0 0 0 0 0 0 0 0 0 0 1 2 2 0 0 0 0 0
0 0 0 0 0 0 0 0 0 0 0 0 0 0 0 0 0 0 0 0 0 0 0 0 0 0 0 0 0 0 0 0 0 0 0 0 1 2 1 0 0 0 0 0
0 0 0 0 0 0 0 0 0 0 0 0 0 0 0 0 0 0 0 0 0 0 0 0 0 0 0 0 0 0 0 0 0 0 0 0 1 2 1 0 0 0 0 0
0 0 0 0 0 0 0 0 0 0 0 0 0 0 0 0 0 0 0 0 0 0 0 0 0 0 0 0 0 0 0 0 0 0 0 0 1 2 2 0 0 0 0 0
0 0 0 0 0 0 0 0 0 0 0 0 0 0 0 0 0 0 0 0 0 0 0 0 0 0 0 0 0 0 0 0 0 0 0 1 2 2 1 0 0 0 0 0
0 0 0 0 0 0 0 0 0 0 0 0 0 0 0 0 0 0 0 0 0 0 0 0 0 0 0 0 0 0 0 0 0 0 0 1 3 2 1 0 0 0 0 0
0 0 0 0 0 0 0 0 0 0 0 0 0 0 0 0 0 0 0 0 0 0 0 0 0 0 0 0 0 0 0 0 0 0 0 1 2 2 1 0 0 0 0 0
0 0 0 0 0 0 0 0 0 0 0 0 0 0 0 0 0 0 0 0 0 0 1 0 0 0 0 0 0 0 0 0 0 0 0 1 1 1 0 0 0 0 0 0
0 0 0 0 0 0 0 0 0 0 0 0 0 0 0 0 0 0 0 0 0 0 0 0 0 0 0 0 0 0 0 0 0 0 0 1 1 0 0 0 0 0 0 0
0 0 0 0 0 0 0 0 0 0 0 0 0 0 0 0 0 0 0 0 0 0 0 0 0 0 0 0 0 0 0 0 0 0 0 1 1 0 0 0 0 0 0 0
0 0 0 0 0 0 0 0 0 0 0 0 0 0 0 0 0 0 0 0 0 0 0 0 0 0 0 0 0 0 0 0 0 0 0 0 0 0 0 0 0 0 0 0
0 0 0 0 0 0 0 0 0 0 0 0 0 0 0 0 0 0 0 0 0 0 0 0 0 0 0 0 0 0 0 0 0 0 0 0 0 0 0 0 0 0 0 0
0 0 0 0 0 0 0 0 0 0 0 0 0 0 0 0 0 0 0 0 0 0 0 0 0 0 0 0 0 0 0 0 0 0 0 0 0 0 0 0 0 0 0 0
0 0 0 0 0 0 0 0 0 0 0 0 0 0 0 0 0 0 0 0 0 0 0 0 0 0 0 0 0 0 0 0 0 0 0 0 0 0 0 0 0 0 0 0
0 0 0 0 0 0 0 0 0 0 0 0 0 0 0 0 0 0 0 0 0 0 0 0 0 0 0 0 0 0 0 0 0 0 0 0 0 0 0 0 0 0 0 0
0 0 0 0 0 0 0 0 0 0 0 0 0 0 0 0 0 0 0 0 0 0 0 0 0 0 0 0 0 0 0 0 0 0 0 0 0 0 0 0 0 0 0 0
0 0 0 0 0 0 0 0 0 0 0 0 0 0 0 0 0 0 0 0 0 0 0 0 0 0 0 0 0 0 0 0 0 0 0 0 0 0 0 0 0 0 0 0
0 0 0 0 0 0 0 0 0 0 0 0 0 0 0 0 0 0 0 0 0 0 0 0 0 0 0 0 0 0 0 0 0 0 0 0 0 0 0 0 0 0 0 0
0 0 0 0 0 0 0 0 0 0 0 0 0 0 0 0 0 0 0 0 0 0 0 0 0 0 0 0 0 0 0 0 0 0 0 0 0 0 0 0 0 0 0 0
Wind_Speed
4 3 4 4 5 5 5 7 8 7 3 4 7 10 9 6 6 6 5 4 4 4 3 3 3 2 2 2 2 1 2 1 1 1 1 1 1 1 1 1 1 1 1 1
3 5 5 4 4 6 7 8 8 6 2 4 7 11 9 7 7 6 5 4 4 3 2 3 3 3 2 2 1 1 1 1 1 1 1 1 1 1 1 1 1 1 1 2
5 2 2 4 4 6 7 7 6 7 7 6 6 9 8 6 6 6 5 4 4 4 3 3 3 3 2 2 2 2 1 1 1 1 1 0 0 0 0 1 1 1 2 2
4 3 3 3 5 4 6 3 5 6 5 5 3 7 6 6 6 6 5 4 3 3 3 3 3 3 2 2 2 2 2 2 1 1 1 1 2 2 2 1 1 2 1 1
3 1 2 4 4 4 4 4 5 6 6 6 5 6 6 4 5 5 4 4 3 3 3 3 3 3 2 2 1 1 1 1 1 1 1 1 2 1 1 1 1 1 1 1
4 2 2 2 3 3 3 4 6 4 3 6 6 6 6 3 4 3 4 3 3 2 2 2 2 3 2 2 1 1 1 1 1 1 1 1 2 1 1 1 1 2 1 1
4 5 3 1 2 2 2 1 1 1 3 6 3 4 6 3 2 3 3 3 2 2 2 2 2 3 2 2 2 1 1 1 1 0 0 1 2 2 2 2 2 2 2 2
4 4 5 4 3 2 4 3 2 3 4 4 3 6 5 2 2 2 1 3 2 2 2 3 3 3 3 3 3 2 2 1 1 1 1 1 2 1 1 2 2 2 2 2
3 2 3 3 2 2 2 3 2 2 4 5 6 4 3 3 2 1 1 2 2 2 3 3 3 2 3 3 3 3 2 1 1 1 1 1 1 1 1 2 2 2 2 2
2 4 2 2 2 3 3 1 1 2 3 5 6 5 4 4 3 1 1 1 1 1 2 3 3 2 3 3 3 2 2 2 1 1 1 1 2 2 1 1 2 2 2 2
1 3 2 3 5 5 4 3 3 3 4 3 5 5 1 2 3 3 2 2 2 2 2 2 2 2 2 2 2 2 2 2 1 1 1 1 1 2 1 2 2 2 2 2
2 2 4 4 2 2 4 5 5 3 4 4 4 7 1 2 1 1 0 1 1 2 2 2 2 2 2 2 2 3 2 2 2 2 1 2 2 1 1 2 2 2 2 2
1 2 3 2 2 2 3 4 4 3 3 4 6 8 1 3 2 1 1 1 1 1 2 1 1 2 2 2 2 2 2 2 2 2 2 2 2 1 2 2 2 2 2 2
1 3 5 6 3 2 4 5 5 5 5 7 10 10 7 5 4 3 2 2 1 2 2 2 2 2 2 2 2 2 2 2 2 2 2 2 2 1 2 2 2 2 2 2
2 4 6 9 10 7 9 9 9 11 10 9 10 11 11 7 5 4 3 3 3 2 2 2 2 2 2 2 2 2 2 2 2 2 2 2 2 1 1 1 2 2 2 3
3 4 4 7 8 8 10 10 10 12 12 15 15 16 10 7 4 3 4 4 3 3 3 2 2 2 2 2 2 1 1 2 2 2 2 2 1 1 2 2 2 2 2 3
3 3 3 5 4 5 9 9 10 8 9 9 13 12 7 7 5 4 5 4 3 3 2 2 2 2 2 2 1 2 1 1 1 1 1 1 1 2 2 2 2 2 2 2
4 3 3 4 3 8 6 2 6 8 9 9 8 7 6 6 6 5 4 2 2 3 2 2 2 1 1 1 1 1 1 1 1 1 1 1 1 2 1 1 1 2 2 2
5 5 3 3 5 9 5 2 3 4 7 6 8 8 6 5 5 5 2 1 2 3 2 1 1 1 1 1 1 1 1 1 1 1 2 2 1 2 2 2 2 2 2 2
2 4 4 4 5 6 3 0 1 2 6 4 5 6 4 2 3 4 3 2 2 2 0 0 0 1 0 1 1 1 1 1 2 2 2 1 1 2 2 2 2 2 2 2
4 5 7 7 6 7 3 2 3 2 6 3 3 4 3 3 5 4 3 3 1 1 0 1 1 0 1 1 2 2 1 2 2 1 1 1 1 2 2 2 2 2 2 1
8 7 7 5 7 9 3 5 5 6 3 3 3 3 3 3 4 3 3 3 2 1 1 0 0 1 1 1 2 2 2 2 1 1 1 1 1 1 1 1 1 1 1 1
8 8 6 9 9 4 6 6 4 2 3 3 3 4 3 3 4 4 3 3 2 1 1 0 1 1 1 1 2 2 2 1 1 1 1 1 1 1 1 1 1 1 1 1
5 5 4 6 7 5 5 4 4 3 4 4 4 4 3 4 4 4 3 2 2 2 1 1 1 1 2 2 2 2 2 1 1 1 1 1 1 1 1 1 1 1 1 2
4 4 4 7 6 5 5 5 4 4 3 4 3 3 3 3 4 4 3 3 2 2 1 1 2 2 3 2 2 2 2 2 1 1 1 1 1 1 1 1 1 1 2 3
6 7 7 8 5 4 4 3 2 3 4 3 3 3 3 2 3 3 3 3 2 2 1 1 2 2 2 2 2 2 2 2 2 2 1 1 1 1 1 1 1 2 2 2
Wind_Direction
193 222 228 229 236 271 285 284 282 284 285 263 258 264 259 249 240 241 233 222 219 213 186 167 169 161 154 153 154 176 169 178 173 192 223 244 242 253 266 255 252 240 231 246
221 235 246 256 257 266 271 278 284 292 300 281 274 273 263 237 230 228 222 217 221 223 196 182 177 168 166 159 156 179 190 183 191 205 217 235 236 240 235 252 283 264 252 247
236 250 262 252 267 273 262 261 278 293 305 269 277 280 246 228 213 212 213 213 215 211 208 194 180 175 166 175 189 202 209 195 200 203 177 252 285 300 276 266 258 260 261 259
253 240 262 259 256 263 265 287 288 289 292 278 239 284 255 213 212 213 209 205 208 214 202 184 175 180 180 189 193 196 194 188 200 190 181 207 224 229 241 237 248 268 256 261
250 230 241 250 262 267 274 316 283 269 269 279 245 250 273 203 217 217 197 187 193 201 192 179 176 185 177 165 172 190 173 184 210 210 201 224 244 244 258 257 258 277 268 251
250 266 266 278 291 255 273 282 267 247 257 263 232 221 271 224 210 190 178 174 177 182 179 164 167 165 151 136 149 171 165 182 206 228 219 233 240 232 236 256 258 277 277 257
240 217 197 225 274 231 244 291 314 269 228 245 213 223 244 238 161 170 179 180 170 165 166 164 165 166 157 158 171 177 179 207 214 246 259 269 254 224 226 249 245 265 269 275
252 233 184 188 203 223 234 223 208 247 262 284 246 233 239 155 122 93 143 172 161 160 166 160 158 162 164 172 177 180 193 211 209 228 257 275 272 247 249 255 258 257 258 261
278 259 150 174 203 218 225 224 253 278 284 278 251 236 241 156 149 148 175 173 175 175 161 158 156 158 170 181 183 183 183 199 216 225 241 270 268 260 269 277 274 269 274 275
295 282 217 165 197 226 251 254 194 216 259 270 270 242 233 205 217 221 220 233 215 171 156 154 158 172 183 179 180 172 175 198 216 217 225 265 262 259 266 273 273 278 282 278
261 264 236 192 205 201 194 215 220 236 243 252 280 270 287 183 182 204 233 219 197 178 160 162 165 175 172 165 174 185 188 196 216 219 222 242 254 262 274 281 277 275 278 275
214 256 257 229 201 212 210 213 197 215 246 235 264 275 346 44 109 148 256 276 214 178 161 158 163 168 170 181 194 194 194 203 214 215 224 238 237 248 265 276 288 287 285 283
178 209 278 258 224 203 236 229 226 238 264 245 246 265 311 1 16 12 347 292 236 178 159 154 167 183 195 203 206 199 199 209 209 201 217 232 237 242 266 279 289 297 291 290
205 217 220 238 259 205 243 239 223 214 230 248 242 263 284 302 307 303 292 266 264 212 193 203 211 212 203 206 203 201 207 209 208 205 212 225 239 245 262 283 284 286 288 281
208 242 247 266 276 266 254 248 230 226 230 241 260 270 277 286 285 290 282 273 275 255 212 209 225 233 221 216 217 210 210 208 213 212 215 232 243 249 265 280 281 280 284 279
206 250 268 270 257 259 262 254 239 237 239 248 264 272 280 292 292 294 278 264 265 260 228 229 233 232 228 217 216 219 211 205 196 206 221 232 237 242 252 268 276 277 280 276
204 228 256 264 277 289 263 236 224 227 225 229 248 260 294 300 292 280 277 262 259 266 249 230 227 229 229 213 206 227 222 199 190 224 237 233 235 248 247 255 263 265 270 276
193 204 233 272 291 247 243 181 195 222 241 236 253 278 292 286 287 284 279 267 285 287 258 247 238 236 233 194 189 207 183 173 197 224 244 243 233 254 256 254 267 271 275 278
203 197 225 240 257 269 270 245 193 216 260 246 251 270 287 304 311 293 284 294 275 279 262 243 226 209 184 182 170 144 166 163 189 230 243 241 223 245 250 248 261 262 263 268
201 194 219 231 245 253 258 127 85 128 274 277 265 269 278 317 294 282 327 327 306 321 5 12 33 32 153 215 162 155 187 187 219 235 245 248 227 240 251 244 248 259 253 250
177 199 217 230 246 261 260 149 114 175 261 306 291 279 267 236 242 275 312 315 305 308 330 98 107 191 218 198 162 177 197 225 237 237 249 256 244 247 252 247 242 247 247 247
181 187 200 203 228 251 183 143 190 230 287 303 302 299 285 275 286 294 304 300 309 315 343 82 151 279 265 195 172 200 224 235 218 199 232 255 257 259 266 246 254 238 217 216
199 196 193 202 219 229 176 196 221 247 285 291 298 303 294 286 284 282 283 284 292 285 267 264 250 285 284 219 189 212 234 212 186 195 233 258 266 264 271 241 245 231 202 213
219 202 218 246 252 255 240 239 248 255 261 274 276 280 286 282 285 290 288 283 278 271 258 255 235 257 271 254 221 217 215 188 184 212 233 243 246 270 276 244 223 209 208 218
214 186 222 247 262 279 261 250 256 267 276 281 280 273 271 271 281 287 289 282 269 273 264 233 223 240 256 258 238 209 199 181 186 219 239 245 240 246 261 259 241 235 230 225
201 198 208 236 225 217 247 245 247 257 264 266 279 284 281 259 269 286 284 277 267 267 274 264 252 248 259 258 248 218 201 188 184 210 230 236 228 250 264 301 329 308 268 269